Home > Weather > Torrance > Past weeks

Flag for USA Past Weather in Torrance, California, USA — Yesterday and Last 2 Weeks

Now
71 °F

Clear.


Feels Like: 73 °F
Forecast: 68 / 79 °F
Wind: No wind

Location: Hawthorne Municipal Airport

Current Time: Jul 28, 2016 at 3:32:13 AM

Latest Report: Jul 28, 2016 at 2:53 AM


Visibility: 10 mi

Pressure: 29.88 "Hg

Humidity: 76%

Dew Point: 63 °F

Location of TorranceLocation

Past Weather in Torrance — Graph

°F

Torrance Temperature Yesterday

Maximum temperature yesterday: 82 °F (at 12:53 PM)
Minimum temperature yesterday: 69 °F (at 4:53 AM)
Average temperature yesterday: 75 °F

High & Low Weather Summary for the Past Weeks

 TemperatureHumidityPressure
High89 °F (Jul 23, 12:53 PM)90% (Jul 26, 5:53 AM)30.03 "Hg (Jul 26, 5:53 AM)
Low64 °F (Jul 15, 3:53 AM)32% (Jul 24, 2:53 PM)29.79 "Hg (Jul 23, 1:53 AM)
Average73 °F69%29.92 "Hg
* Reported Jul 13 1:53 AM — Jul 28 1:53 AM, Torrance, Weather by CustomWeather, © 2016

Note: Actual official high and low records may vary slightly from our data, if they occured in-between our weather recording intervals... More about our weather records

Advertising

Torrance Weather History for the Previous 24 Hours

Scroll right to see more
 ConditionsComfort  
Time TempWeatherWind HumidityBarometerVisibility
1:53 AM
Thu, Jul 28
71 °FClear.3 mph81%29.89 "Hg10 mi
12:53 AM71 °FClear.3 mph84%29.90 "Hg10 mi
11:53 PM
Wed, Jul 27
72 °FClear.7 mph84%29.90 "Hg10 mi
10:53 PM71 °FClear.5 mph87%29.89 "Hg10 mi
9:53 PM72 °FClear.7 mph81%29.89 "Hg10 mi
8:53 PM72 °FSunny.3 mph81%29.88 "Hg10 mi
7:53 PM73 °FSunny.9 mph81%29.87 "Hg10 mi
6:53 PM75 °FSunny.9 mph76%29.86 "Hg10 mi
5:53 PM77 °FSunny.12 mph66%29.86 "Hg10 mi
4:53 PM78 °FSunny.13 mph62%29.88 "Hg10 mi
3:53 PM81 °FSunny.10 mph51%29.89 "Hg10 mi
2:53 PM81 °FSunny.16 mph49%29.90 "Hg10 mi
1:53 PM82 °FSunny.13 mph55%29.91 "Hg10 mi
12:53 PM82 °FSunny.10 mph53%29.91 "Hg10 mi
11:53 AM81 °FSunny.9 mph54%29.92 "Hg10 mi
10:53 AM79 °FSunny.8 mph58%29.93 "Hg10 mi
9:53 AM78 °FSunny.5 mph64%29.92 "Hg10 mi
8:53 AM75 °FSunny.5 mph74%29.92 "Hg10 mi
7:53 AM72 °FSunny.6 mph81%29.91 "Hg10 mi
6:53 AM70 °FClear.No wind87%29.90 "Hg10 mi
5:53 AM69 °FClear.No wind87%29.88 "Hg10 mi
4:53 AM69 °FClear.3 mph90%29.87 "Hg10 mi
3:53 AM70 °FClear.5 mph87%29.86 "Hg10 mi
Weather by CustomWeather, © 2016

See weather overviewHow to use our weather pages